Time,TemperatureF,DewpointF,PressureIn,WindDirection,WindDirectionDegrees,WindSpeedMPH,WindSpeedGustMPH,Humidity,HourlyPrecipIn,Conditions,Clouds,dailyrainin,SoftwareType,DateUTC
2013-04-23 00:01:00,73.0,36.0,29.78,SW,233,14.0,18.0,26,0.00,,,0.00,,2013-04-23 07:01:00,
2013-04-23 00:11:00,73.0,36.0,29.78,SW,233,14.0,18.0,26,0.00,,,0.00,,2013-04-23 07:11:00,
2013-04-23 00:21:00,73.0,35.0,29.78,WSW,237,10.0,14.0,25,0.00,,,0.00,,2013-04-23 07:21:00,
2013-04-23 00:32:00,73.0,36.0,29.79,WSW,241,10.0,14.0,26,0.00,,,0.00,,2013-04-23 07:32:00,
2013-04-23 00:41:00,73.0,36.0,29.79,WSW,241,10.0,14.0,26,0.00,,,0.00,,2013-04-23 07:41:00,
2013-04-23 00:52:00,73.0,35.0,29.79,WSW,237,12.0,15.0,25,0.00,,,0.00,,2013-04-23 07:52:00,
2013-04-23 01:01:00,73.0,35.0,29.79,West,265,8.0,16.0,25,0.00,,,0.00,,2013-04-23 08:01:00,
2013-04-23 01:11:00,73.0,35.0,29.79,West,265,8.0,16.0,25,0.00,,,0.00,,2013-04-23 08:11:00,
2013-04-23 01:21:00,72.0,34.0,29.80,WSW,244,9.0,14.0,25,0.00,,,0.00,,2013-04-23 08:21:00,
2013-04-23 01:31:00,71.0,33.0,29.81,WNW,287,5.0,12.0,25,0.00,,,0.00,,2013-04-23 08:31:00,
2013-04-23 01:42:00,71.0,33.0,29.81,WNW,287,5.0,12.0,25,0.00,,,0.00,,2013-04-23 08:42:00,
2013-04-23 01:52:00,70.0,33.0,29.82,NW,304,2.0,6.0,25,0.00,,,0.00,,2013-04-23 08:52:00,
2013-04-23 02:01:00,70.0,33.0,29.82,NW,311,4.0,10.0,25,0.00,,,0.00,,2013-04-23 09:01:00,
2013-04-23 02:11:00,70.0,33.0,29.82,NW,311,4.0,10.0,25,0.00,,,0.00,,2013-04-23 09:11:00,
2013-04-23 02:21:00,71.0,29.0,29.82,NW,320,14.0,24.0,21,0.00,,,0.00,,2013-04-23 09:21:00,
2013-04-23 02:32:00,72.0,30.0,29.83,NNW,341,15.0,25.0,21,0.00,,,0.00,,2013-04-23 09:32:00,
2013-04-23 02:42:00,72.0,30.0,29.83,NNW,341,15.0,25.0,21,0.00,,,0.00,,2013-04-23 09:42:00,
2013-04-23 02:52:00,71.0,29.0,29.84,NNW,336,16.0,25.0,21,0.00,,,0.00,,2013-04-23 09:52:00,
2013-04-23 03:02:00,71.0,29.0,29.85,NW,323,16.0,20.0,21,0.00,,,0.00,,2013-04-23 10:02:00,
2013-04-23 03:12:00,71.0,29.0,29.85,NW,323,16.0,20.0,21,0.00,,,0.00,,2013-04-23 10:12:00,
2013-04-23 03:22:00,70.0,28.0,29.86,NW,321,18.0,27.0,21,0.00,,,0.00,,2013-04-23 10:22:00,
2013-04-23 03:32:00,69.0,27.0,29.87,North,355,15.0,22.0,21,0.00,,,0.00,,2013-04-23 10:32:00,
2013-04-23 03:42:00,69.0,27.0,29.87,North,355,15.0,22.0,21,0.00,,,0.00,,2013-04-23 10:42:00,
2013-04-23 03:52:00,68.0,27.0,29.88,NNW,341,15.0,20.0,21,0.00,,,0.00,,2013-04-23 10:52:00,
2013-04-23 04:02:00,68.0,27.0,29.88,NNW,327,15.0,21.0,21,0.00,,,0.00,,2013-04-23 11:02:00,
2013-04-23 04:11:00,68.0,27.0,29.88,NNW,327,15.0,21.0,21,0.00,,,0.00,,2013-04-23 11:11:00,
2013-04-23 04:21:00,67.0,26.0,29.89,North,355,12.0,25.0,21,0.00,,,0.00,,2013-04-23 11:21:00,
2013-04-23 04:32:00,67.0,25.0,29.89,North,350,18.0,25.0,20,0.00,,,0.00,,2013-04-23 11:32:00,
2013-04-23 04:42:00,67.0,25.0,29.89,North,350,18.0,25.0,20,0.00,,,0.00,,2013-04-23 11:42:00,
2013-04-23 04:52:00,66.0,24.0,29.91,NNW,330,19.0,26.0,20,0.00,,,0.00,,2013-04-23 11:52:00,
2013-04-23 05:01:00,66.0,24.0,29.91,NNW,338,19.0,29.0,20,0.00,,,0.00,,2013-04-23 12:01:00,
2013-04-23 05:12:00,66.0,24.0,29.91,NNW,338,19.0,29.0,20,0.00,,,0.00,,2013-04-23 12:12:00,
2013-04-23 05:22:00,65.0,23.0,29.92,NW,323,17.0,25.0,20,0.00,,,0.00,,2013-04-23 12:22:00,
2013-04-23 05:32:00,65.0,23.0,29.93,NNW,328,15.0,26.0,20,0.00,,,0.00,,2013-04-23 12:32:00,
2013-04-23 05:41:00,65.0,23.0,29.93,NNW,328,15.0,26.0,20,0.00,,,0.00,,2013-04-23 12:41:00,
2013-04-23 05:52:00,64.0,22.0,29.93,NW,323,15.0,24.0,20,0.00,,,0.00,,2013-04-23 12:52:00,
2013-04-23 06:01:00,64.0,22.0,29.94,NNW,329,15.0,24.0,20,0.00,,,0.00,,2013-04-23 13:01:00,
2013-04-23 06:11:00,64.0,22.0,29.94,NNW,329,15.0,24.0,20,0.00,,,0.00,,2013-04-23 13:11:00,
2013-04-23 06:21:00,63.0,21.0,29.95,NNW,331,15.0,23.0,20,0.00,,,0.00,,2013-04-23 13:21:00,
2013-04-23 06:31:00,63.0,21.0,29.96,NW,315,16.0,25.0,20,0.00,,,0.00,,2013-04-23 13:31:00,
2013-04-23 06:41:00,63.0,21.0,29.96,NW,315,16.0,25.0,20,0.00,,,0.00,,2013-04-23 13:41:00,
2013-04-23 06:52:00,63.0,22.0,29.99,NE,45,5.0,17.0,21,0.00,,,0.00,,2013-04-23 13:52:00,
2013-04-23 07:01:00,63.0,22.0,29.99,ENE,67,1.0,11.0,21,0.00,,,0.00,,2013-04-23 14:01:00,
2013-04-23 07:11:00,63.0,22.0,29.99,ENE,67,1.0,11.0,21,0.00,,,0.00,,2013-04-23 14:11:00,
2013-04-23 07:22:00,63.0,22.0,30.00,North,9,1.0,6.0,21,0.00,,,0.00,,2013-04-23 14:22:00,
2013-04-23 07:31:00,63.0,21.0,30.01,North,349,5.0,12.0,20,0.00,,,0.00,,2013-04-23 14:31:00,
2013-04-23 07:41:00,63.0,21.0,30.01,North,349,5.0,12.0,20,0.00,,,0.00,,2013-04-23 14:41:00,
2013-04-23 07:52:00,64.0,22.0,30.01,NNW,344,8.0,17.0,20,0.00,,,0.00,,2013-04-23 14:52:00,
2013-04-23 08:01:00,64.0,22.0,30.01,NNW,344,8.0,17.0,20,0.00,,,0.00,,2013-04-23 15:01:00,
2013-04-23 08:11:00,65.0,22.0,30.01,NNW,341,15.0,19.0,19,0.00,,,0.00,,2013-04-23 15:11:00,
2013-04-23 08:21:00,66.0,23.0,30.03,North,360,10.0,16.0,19,0.00,,,0.00,,2013-04-23 15:21:00,
2013-04-23 08:32:00,67.0,22.0,30.03,North,355,9.0,13.0,18,0.00,,,0.00,,2013-04-23 15:32:00,
2013-04-23 08:42:00,67.0,22.0,30.03,North,355,9.0,13.0,18,0.00,,,0.00,,2013-04-23 15:42:00,
2013-04-23 08:53:00,68.0,23.0,30.04,NNE,21,11.0,15.0,18,0.00,,,0.00,,2013-04-23 15:53:00,
2013-04-23 09:02:00,68.0,23.0,30.04,NNW,344,8.0,14.0,18,0.00,,,0.00,,2013-04-23 16:02:00,
2013-04-23 09:23:00,69.0,22.0,30.03,NW,313,14.0,18.0,17,0.00,,,0.00,,2013-04-23 16:23:00,
2013-04-23 09:33:00,70.0,23.0,30.04,NNW,332,13.0,20.0,17,0.00,,,0.00,,2013-04-23 16:33:00,
2013-04-23 09:52:00,72.0,23.0,30.04,NNW,332,9.0,17.0,16,0.00,,,0.00,,2013-04-23 16:52:00,
2013-04-23 10:02:00,73.0,24.0,30.04,North,5,7.0,22.0,16,0.00,,,0.00,,2013-04-23 17:02:00,
2013-04-23 10:22:00,75.0,26.0,30.04,WSW,257,4.0,15.0,16,0.00,,,0.00,,2013-04-23 17:22:00,
2013-04-23 10:32:00,76.0,25.0,30.04,East,82,10.0,17.0,15,0.00,,,0.00,,2013-04-23 17:32:00,
2013-04-23 10:53:00,75.0,24.0,30.04,ENE,72,11.0,19.0,15,0.00,,,0.00,,2013-04-23 17:53:00,
2013-04-23 11:01:00,75.0,24.0,30.04,NE,40,6.0,17.0,15,0.00,,,0.00,,2013-04-23 18:01:00,
2013-04-23 11:22:00,75.0,23.0,30.04,ENE,69,10.0,20.0,14,0.00,,,0.00,,2013-04-23 18:22:00,
2013-04-23 11:31:00,76.0,23.0,30.04,NE,53,13.0,22.0,14,0.00,,,0.00,,2013-04-23 18:31:00,
2013-04-23 11:52:00,75.0,23.0,30.03,ENE,68,13.0,18.0,14,0.00,,,0.00,,2013-04-23 18:52:00,
2013-04-23 12:02:00,76.0,22.0,30.03,East,99,10.0,18.0,13,0.00,,,0.00,,2013-04-23 19:02:00,
2013-04-23 12:11:00,76.0,22.0,30.03,East,99,10.0,18.0,13,0.00,,,0.00,,2013-04-23 19:11:00,
2013-04-23 12:21:00,77.0,22.0,30.03,East,81,6.0,15.0,13,0.00,,,0.00,,2013-04-23 19:21:00,
2013-04-23 12:32:00,77.0,22.0,30.03,ENE,63,10.0,17.0,13,0.00,,,0.00,,2013-04-23 19:32:00,
2013-04-23 12:52:00,77.0,22.0,30.02,ENE,69,7.0,18.0,13,0.00,,,0.00,,2013-04-23 19:52:00,
2013-04-23 13:01:00,77.0,24.0,30.02,East,101,8.0,14.0,14,0.00,,,0.00,,2013-04-23 20:01:00,
2013-04-23 13:21:00,78.0,23.0,30.01,ENE,69,2.0,16.0,13,0.00,,,0.00,,2013-04-23 20:21:00,
2013-04-23 13:31:00,78.0,23.0,30.01,ENE,65,7.0,17.0,13,0.00,,,0.00,,2013-04-23 20:31:00,
2013-04-23 13:52:00,80.0,25.0,30.01,NE,43,2.0,11.0,13,0.00,,,0.00,,2013-04-23 20:52:00,
2013-04-23 14:01:00,80.0,23.0,30.01,ESE,115,3.0,14.0,12,0.00,,,0.00,,2013-04-23 21:01:00,
2013-04-23 14:21:00,80.0,25.0,29.98,ENE,75,5.0,13.0,13,0.00,,,0.00,,2013-04-23 21:21:00,
2013-04-23 14:32:00,80.0,23.0,29.97,ENE,76,6.0,14.0,12,0.00,,,0.00,,2013-04-23 21:32:00,
2013-04-23 14:52:00,80.0,23.0,29.96,ENE,75,1.0,10.0,12,0.00,,,0.00,,2013-04-23 21:52:00,
2013-04-23 15:02:00,81.0,24.0,29.96,ESE,104,5.0,9.0,12,0.00,,,0.00,,2013-04-23 22:02:00,
2013-04-23 15:22:00,82.0,22.0,29.95,North,10,5.0,12.0,11,0.00,,,0.00,,2013-04-23 22:22:00,
2013-04-23 15:32:00,82.0,22.0,29.94,ESE,123,3.0,10.0,11,0.00,,,0.00,,2013-04-23 22:32:00,
2013-04-23 15:52:00,83.0,23.0,29.93,ENE,73,4.0,11.0,11,0.00,,,0.00,,2013-04-23 22:52:00,
2013-04-23 16:02:00,83.0,23.0,29.93,NNE,19,4.0,6.0,11,0.00,,,0.00,,2013-04-23 23:02:00,
2013-04-23 16:21:00,82.0,22.0,29.91,NNE,30,8.0,11.0,11,0.00,,,0.00,,2013-04-23 23:21:00,
2013-04-23 16:31:00,83.0,25.0,29.91,ESE,106,2.0,11.0,12,0.00,,,0.00,,2013-04-23 23:31:00,
2013-04-23 18:52:00,79.0,20.0,29.88,ESE,119,9.0,11.0,11,0.00,,,0.00,,2013-04-24 01:52:00,
2013-04-23 19:02:00,78.0,19.0,29.88,ESE,110,6.0,11.0,11,0.00,,,0.00,,2013-04-24 02:02:00,
2013-04-23 19:23:00,77.0,18.0,29.87,ESE,114,6.0,9.0,11,0.00,,,0.00,,2013-04-24 02:23:00,
2013-04-23 19:56:00,75.0,19.0,29.87,SE,130,6.0,11.0,12,0.00,,,0.00,,2013-04-24 02:56:00,
2013-04-23 20:02:00,74.0,18.0,29.87,SSE,163,5.0,9.0,12,0.00,,,0.00,,2013-04-24 03:02:00,
2013-04-23 20:22:00,73.0,21.0,29.87,SSW,196,10.0,12.0,14,0.00,,,0.00,,2013-04-24 03:22:00,
2013-04-23 21:02:00,73.0,21.0,29.89,South,176,5.0,9.0,14,0.00,,,0.00,,2013-04-24 04:02:00,
2013-04-23 21:12:00,70.0,15.0,29.90,South,179,6.0,9.0,12,0.00,,,0.00,,2013-04-24 04:12:00,
2013-04-23 21:22:00,70.0,17.0,29.90,South,179,6.0,10.0,13,0.00,,,0.00,,2013-04-24 04:22:00,
2013-04-23 21:33:00,70.0,15.0,29.90,South,179,6.0,9.0,12,0.00,,,0.00,,2013-04-24 04:33:00,
2013-04-23 21:43:00,70.0,15.0,29.90,South,179,6.0,9.0,12,0.00,,,0.00,,2013-04-24 04:43:00,
2013-04-23 21:52:00,70.0,15.0,29.90,South,179,6.0,9.0,12,0.00,,,0.00,,2013-04-24 04:52:00,
2013-04-23 22:02:00,70.0,15.0,29.90,South,179,6.0,9.0,12,0.00,,,0.00,,2013-04-24 05:02:00,
2013-04-23 23:52:00,68.0,14.0,29.89,South,187,10.0,16.0,12,0.00,,,0.00,,2013-04-24 06:52:00,